Regional Weather Roundup
Issued by NWS Midland/Odessa, TX

Home | Current Version | Previous Version | Text Only | Print | Product List | Glossary On
Versions: 1 2 3 4 5 6 7 8 9 10 11 12 13 14 15 16 17 18 19 20 21 22 23 24 25 26 27 28 29 30 31 32 33 34 35 36 37 38 39 40 41 42 43 44 45 46 47 48 49 50
000
ASUS44 KMAF 262310
RWRMAF
MIDLAND AREA WEATHER ROUNDUP
NATIONAL WEATHER SERVICE MIDLAND TX
600 PM CDT WED APR 26 2017

...IN SOUTHWEST TEXAS AND SOUTHEAST NEW MEXICO...

CITY           SKY/WX    TMP DP  RH WIND       PRES   REMARKS
ALPINE         SUNNY     76  17  10 NW16G26   29.88F
ANDREWS        FAIR      69  33  25 N6        29.80F
ARTESIA        SUNNY     72  32  23 VRB6      29.75F
BIG SPRING     SUNNY     70  34  26 N9G16     29.80F
CARLSBAD       SUNNY     73  30  20 SE6       29.74F
DRYDEN           N/A     84  26  12 N18G26    29.70F
FORT STOCKTON  CLOUDY    74  27  17 N10       29.78F
GUAD PASS      SUNNY     70  12  10 SW26G41   29.84F
HOBBS          SUNNY     68  27  21 W9        29.80F
MARFA          SUNNY     74  20  13 W14G23    29.86F
MIDLAND AIRPK  SUNNY     72  31  22 W7        29.81S
MIDLAND INTL   SUNNY     72  31  22 W10       29.80F
ODESSA         SUNNY     72  31  22 W10       29.81S
PECOS          SUNNY     75  28  17 NE5       29.76F
PRESIDIO       FAIR      87  28  11 W17G29    29.74F
SEMINOLE       SUNNY     69  32  25 NW6       29.80F
SNYDER         SUNNY    N/A N/A N/A NW7G22    29.78F
WINK           SUNNY     75  31  19 VRB6      29.77F
$$
...OTHER STATIONS IN TEXAS...

CITY           SKY/WX    TMP DP  RH WIND       PRES   REMARKS
ABILENE        MOSUNNY   65  39  38 NW15      29.77F
AMARILLO       SUNNY     61  31  32 NW14G24   29.77F
AUSTIN         MOSUNNY   87  37  17 NW15G22   29.61R
BROWNSVILLE    SUNNY     94  68  42 NE16G24   29.55R
CORPUS CHRISTI MOSUNNY   95  46  18 N16       29.54S
DALLAS FTW     CLOUDY    62  47  57 NW21      29.68R
DEL RIO        SUNNY     87  32  14 N18G26    29.64S
EL PASO        MOSUNNY   79   9   7 SW13G23   29.78F
HOUSTON INT    MOSUNNY   90  63  40 W12G22    29.51S
LUBBOCK        PTSUNNY   68  34  28 NW13G26   29.77F
SAN ANGELO     SUNNY     74  37  26 NW15      29.77S
SAN ANTONIO    MOSUNNY   87  34  15 NW24G31   29.63R
WACO           SUNNY     70  49  47 NW20G29   29.67R
WICHITA FALLS  NOT AVBL
$$
...OTHER LOCATIONS IN NEW MEXICO...

CITY           SKY/WX    TMP DP  RH WIND       PRES   REMARKS
ALAMOGORDO     SUNNY     72  12  10 SW6       29.81F
ALBUQUERQUE    PTSUNNY   65  14  14 NW17G24   29.79F
CANNON AFB     SUNNY     66  31  26 SE6       29.73F
CLOVIS         SUNNY     66  34  30 W8        29.75F
HOLLOMAN AFB   SUNNY     72  15  11 S3        29.82F
ROSWELL        SUNNY     73  30  20 S15G21      N/A
RUIDOSO        SUNNY     61  10  13 NW14G21   29.89F
SANTA FE       CLOUDY    59  16  18 W23G29    29.80F
TRUTH OR CONSE SUNNY     75  14  10 S10G20    29.76F
TUCUMCARI      SUNNY     66  36  32 E15       29.69F
$$



USA.gov is the U.S. government's official web portal to all federal, state and local government web resources and services.